Weather History for KSFZ - January, 2013

Change the Weather History Date:

Tuesday, January 15, 2013

  Actual Average Record
Temperature  
Mean Temperature 36 °F -  
Max Temperature 39 °F 30 °F 50 °F (1999)
Min Temperature 33 °F 16 °F 0 °F (2004)
Degree Days  
Heating Degree Days 29    
Moisture  
Dew Point 25 °F    
Average Humidity 64    
Maximum Humidity 75    
Minimum Humidity 52    
Precipitation  
Precipitation 0.03 in - - ()
Sea Level Pressure  
Sea Level Pressure 30.24 in    
Wind  
Wind Speed 5 mph (North)    
Max Wind Speed 9 mph    
Max Gust Speed -    
Visibility 10 miles    
Events      
Averages and records for this station are not official NWS values.
T = Trace of Precipitation, MM = Missing Value Source: NWS Daily Summary

Daily Weather History Graph

Daily Weather History Graph

Search for Another Location

Airport or City:

Trip Planner

Search our weather history database for the weather conditions in past years. The results will help you decide how hot, cold, wet, or windy it might be!

Date:

Astronomy

Jan. 15, 2013 Rise Set
Actual Time 7:11 AM EST 4:40 PM EST
Civil Twilight 6:40 AM EST 5:10 PM EST
Nautical Twilight 6:06 AM EST 5:45 PM EST
Astronomical Twilight 5:32 AM EST 6:18 PM EST
Moon 9:10 AM EST (1/15) 9:32 PM EST (1/15)
Length of Visible Light 10h 30m
Length of Day
9h 29m
Waxing Crescent, 19% of the Moon is Illuminated
Jan 15
Waxing Crescent
Jan 18
First Quarter
Jan 26
Full
Feb 3
Last Quarter
Feb 10
New

Hourly Weather History & Observations

Time (EST) Temp. Windchill Dew Point Humidity Pressure Visibility Wind Dir Wind Speed Gust Speed Precip Events Conditions
12:15 AM 37.4 °F 32.8 °F 28.4 °F 70% 30.23 in 10.0 mi NW 5.8 mph - N/A   Mostly Cloudy
12:35 AM 37.4 °F 32.1 °F 28.4 °F 70% 30.26 in 10.0 mi NW 6.9 mph - 0.01 in   Mostly Cloudy
12:55 AM 37.4 °F 32.8 °F 28.4 °F 70% 30.23 in 10.0 mi NNW 5.8 mph - 0.01 in   Partly Cloudy
1:15 AM 35.6 °F 31.7 °F 28.4 °F 75% 30.23 in 10.0 mi NNW 4.6 mph - N/A   Clear
1:35 AM 35.6 °F 32.8 °F 26.6 °F 70% 30.24 in 10.0 mi NW 3.5 mph - N/A   Clear
1:55 AM 35.6 °F 31.7 °F 26.6 °F 70% 30.25 in 10.0 mi NW 4.6 mph - N/A   Clear
2:15 AM 35.6 °F 29.9 °F 26.6 °F 70% 30.26 in 10.0 mi NNW 6.9 mph - 0.01 in   Scattered Clouds
2:35 AM 35.6 °F 30.7 °F 26.6 °F 70% 30.20 in 10.0 mi NE 5.8 mph - 0.01 in   Mostly Cloudy
2:55 AM 35.6 °F 29.9 °F 28.4 °F 75% 30.24 in 10.0 mi North 6.9 mph - 0.02 in   Scattered Clouds
3:15 AM 35.6 °F 30.7 °F 28.4 °F 75% 30.22 in 10.0 mi North 5.8 mph - N/A   Scattered Clouds
3:35 AM 35.6 °F 32.8 °F 28.4 °F 75% 30.22 in 10.0 mi North 3.5 mph - N/A   Mostly Cloudy
4:35 AM 35.6 °F 32.8 °F 28.4 °F 75% 30.20 in 10.0 mi North 3.5 mph - N/A   Overcast
4:55 AM 35.6 °F 31.7 °F 28.4 °F 75% 30.20 in 10.0 mi North 4.6 mph - N/A   Overcast
5:15 AM 35.6 °F 32.8 °F 28.4 °F 75% 30.19 in 10.0 mi North 3.5 mph - N/A   Mostly Cloudy
5:55 AM 35.6 °F 31.7 °F 26.6 °F 70% 30.21 in 10.0 mi North 4.6 mph - N/A   Overcast
6:15 AM 33.8 °F 28.6 °F 26.6 °F 75% 30.21 in 10.0 mi North 5.8 mph - N/A   Partly Cloudy
6:55 AM 33.8 °F 30.8 °F 26.6 °F 75% 30.25 in 10.0 mi NW 3.5 mph - N/A   Clear
7:15 AM 33.8 °F 30.8 °F 24.8 °F 70% 30.26 in 10.0 mi North 3.5 mph - N/A   Clear
7:35 AM 33.8 °F 30.8 °F 24.8 °F 70% 30.26 in 10.0 mi NNW 3.5 mph - N/A   Clear
7:55 AM 33.8 °F 28.6 °F 24.8 °F 70% 30.27 in 10.0 mi North 5.8 mph - N/A   Clear
8:15 AM 33.8 °F 28.6 °F 24.8 °F 70% 30.27 in 10.0 mi North 5.8 mph - N/A   Clear
8:35 AM 33.8 °F 28.6 °F 24.8 °F 70% 30.28 in 10.0 mi North 5.8 mph - N/A   Clear
9:15 AM 35.6 °F 29.2 °F 24.8 °F 65% 30.28 in 10.0 mi North 8.1 mph - N/A   Clear
9:35 AM 35.6 °F 28.6 °F 24.8 °F 65% 30.28 in 10.0 mi North 9.2 mph - N/A   Clear
9:55 AM 37.4 °F 30.8 °F 24.8 °F 60% 30.29 in 10.0 mi North 9.2 mph - N/A   Clear
10:15 AM 37.4 °F 31.4 °F 26.6 °F 65% 30.29 in 10.0 mi North 8.1 mph - N/A   Partly Cloudy
10:35 AM 37.4 °F 31.4 °F 24.8 °F 60% 30.29 in 10.0 mi NNW 8.1 mph - N/A   Partly Cloudy
10:55 AM 37.4 °F 30.8 °F 24.8 °F 60% 30.28 in 10.0 mi North 9.2 mph - N/A   Clear
11:35 AM 37.4 °F 32.1 °F 24.8 °F 60% 30.24 in 10.0 mi North 6.9 mph - N/A   Clear
11:55 AM 37.4 °F 32.1 °F 24.8 °F 60% 30.25 in 10.0 mi NNW 6.9 mph - N/A   Clear
12:15 PM 39.2 °F 35.0 °F 24.8 °F 56% 30.25 in 10.0 mi NW 5.8 mph - N/A   Clear
12:35 PM 39.2 °F 35.9 °F 24.8 °F 56% 30.25 in 10.0 mi North 4.6 mph - N/A   Clear
12:55 PM 39.2 °F 35.0 °F 24.8 °F 56% 30.24 in 10.0 mi North 5.8 mph - N/A   Clear
1:15 PM 39.2 °F 37.0 °F 24.8 °F 56% 30.24 in 10.0 mi NNW 3.5 mph - N/A   Clear
1:35 PM 39.2 °F 35.9 °F 24.8 °F 56% 30.24 in 10.0 mi North 4.6 mph - N/A   Clear
1:55 PM 39.2 °F 35.0 °F 24.8 °F 56% 30.25 in 10.0 mi North 5.8 mph - N/A   Clear
2:35 PM 39.2 °F 37.0 °F 24.8 °F 56% 30.23 in 10.0 mi NNE 3.5 mph - N/A   Clear
2:55 PM 39.2 °F 37.0 °F 23.0 °F 52% 30.23 in 10.0 mi NNW 3.5 mph - N/A   Clear
3:15 PM 39.2 °F 35.9 °F 24.8 °F 56% 30.23 in 10.0 mi NW 4.6 mph - N/A   Clear
3:35 PM 39.2 °F 35.9 °F 24.8 °F 56% 30.24 in 10.0 mi North 4.6 mph - N/A   Clear
3:55 PM 37.4 °F 34.9 °F 23.0 °F 56% 30.22 in 10.0 mi North 3.5 mph - N/A   Clear
4:35 PM 35.6 °F - 24.8 °F 65% 30.24 in 10.0 mi Calm Calm - N/A   Clear
4:55 PM 35.6 °F 32.8 °F 21.2 °F 56% 30.25 in 10.0 mi WNW 3.5 mph - N/A   Clear
5:15 PM 35.6 °F 32.8 °F 23.0 °F 60% 30.24 in 10.0 mi WNW 3.5 mph - N/A   Clear
5:35 PM 35.6 °F - 21.2 °F 56% 30.24 in 10.0 mi Calm Calm - N/A   Clear
5:55 PM 35.6 °F - 21.2 °F 56% 30.26 in 10.0 mi Calm Calm - N/A   Clear
6:15 PM 33.8 °F - 21.2 °F 60% 30.24 in 10.0 mi Calm Calm - N/A   Clear
6:55 PM 33.8 °F 30.8 °F 23.0 °F 65% 30.25 in 10.0 mi WNW 3.5 mph - N/A   Clear
7:15 PM 33.8 °F 29.6 °F 21.2 °F 60% 30.26 in 10.0 mi NW 4.6 mph - N/A   Clear
7:35 PM 33.8 °F 30.8 °F 21.2 °F 60% 30.24 in 10.0 mi NNW 3.5 mph - N/A   Clear
7:55 PM 33.8 °F 29.6 °F 21.2 °F 60% 30.24 in 10.0 mi North 4.6 mph - N/A   Clear
8:15 PM 33.8 °F 29.6 °F 21.2 °F 60% 30.24 in 10.0 mi North 4.6 mph - N/A   Mostly Cloudy
8:35 PM 33.8 °F 30.8 °F 21.2 °F 60% 30.23 in 10.0 mi NNW 3.5 mph - N/A   Mostly Cloudy
9:15 PM 33.8 °F 29.6 °F 21.2 °F 60% 30.23 in 10.0 mi North 4.6 mph - N/A   Scattered Clouds
9:35 PM 33.8 °F 28.6 °F 23.0 °F 65% 30.23 in 10.0 mi North 5.8 mph - N/A   Partly Cloudy
9:55 PM 33.8 °F 27.0 °F 23.0 °F 65% 30.23 in 10.0 mi North 8.1 mph - N/A   Partly Cloudy
10:15 PM 33.8 °F 28.6 °F 21.2 °F 60% 30.22 in 10.0 mi NE 5.8 mph - N/A   Scattered Clouds
10:35 PM 33.8 °F 29.6 °F 21.2 °F 60% 30.22 in 10.0 mi NE 4.6 mph - N/A   Scattered Clouds
10:55 PM 33.8 °F 29.6 °F 21.2 °F 60% 30.22 in 10.0 mi NE 4.6 mph - N/A   Partly Cloudy
11:35 PM 33.8 °F 27.7 °F 23.0 °F 65% 30.21 in 10.0 mi NNE 6.9 mph - N/A   Overcast
11:55 PM 33.8 °F 27.7 °F 21.2 °F 60% 30.20 in 10.0 mi NNE 6.9 mph - N/A   Mostly Cloudy